QPF
0.00 0.00 0.00 0.00 0.00 0.00 0.00 0.00 0.00 0.08 0.17 0.10 0.05 0.04 0.01 0.02 0.03 0.01 0.01 0.01 0.00 0.01 0.01 0.02 0.06 0.07 0.09 0.05 0.00 0.00 0.00 0.00 0.00 0.01 0.00 0.00 0.00 0.00 0.00 0.00 0.00 0.00 0.00
0.00 0.00 0.00 0.00 0.00 0.00 0.00 0.00 0.05 0.18 0.28 0.13 0.09 0.10 0.08 0.09 0.14 0.12 0.09 0.07 0.00 0.00 0.00 0.01 0.02 0.04 0.08 0.02 0.00 0.00 0.00 0.00 0.00 0.02 0.03 0.01 0.01 0.01 0.00 0.00 0.00 0.00 0.00
0.00 0.00 0.00 0.00 0.00 0.01 0.04 0.06 0.12 0.17 0.20 0.14 0.16 0.14 0.10 0.20 0.38 0.27 0.13 0.04 0.00 0.00 0.00 0.00 0.01 0.02 0.02 0.00 0.00 0.00 0.00 0.00 0.00 0.01 0.03 0.01 0.02 0.07 0.04 0.01 0.01 0.00 0.00
0.00 0.00 0.01 0.00 0.00 0.07 0.17 0.16 0.10 0.18 0.22 0.20 0.26 0.23 0.21 0.28 0.31 0.30 0.04 0.00 0.00 0.00 0.00 0.00 0.01 0.02 0.01 0.00 0.00 0.00 0.00 0.00 0.00 0.00 0.00 0.00 0.00 0.02 0.06 0.08 0.03 0.02 0.01
0.00 0.01 0.02 0.00 0.00 0.01 0.04 0.02 0.08 0.19 0.96 0.88 0.36 0.37 0.33 0.21 0.16 0.04 0.00 0.00 0.00 0.00 0.00 0.00 0.00 0.00 0.00 0.00 0.00 0.00 0.00 0.00 0.00 0.00 0.00 0.00 0.00 0.00 0.00 0.00 0.00 0.00 0.01
0.00 0.01 0.02 0.01 0.00 0.01 0.02 0.24 0.77 0.55 0.57 0.81 0.45 0.20 0.14 0.01 0.01 0.00 0.00 0.00 0.00 0.00 0.00 0.00 0.00 0.00 0.00 0.00 0.00 0.00 0.00 0.00 0.00 0.00 0.00 0.00 0.00 0.00 0.00 0.00 0.00 0.00 0.00
0.00 0.01 0.02 0.06 0.06 0.04 0.01 0.22 1.56 1.23 0.35 0.18 0.19 0.07 0.01 0.00 0.00 0.00 0.00 0.00 0.00 0.00 0.00 0.00 0.00 0.00 0.00 0.00 0.00 0.00 0.00 0.00 0.00 0.00 0.00 0.00 0.00 0.00 0.00 0.00 0.00 0.00 0.00
0.00 0.00 0.02 0.05 0.07 0.07 0.03 0.09 0.36 0.55 0.21 0.05 0.04 0.02 0.01 0.00 0.00 0.00 0.00 0.00 0.00 0.00 0.00 0.00 0.00 0.00 0.00 0.00 0.00 0.00 0.00 0.00 0.00 0.00 0.00 0.00 0.00 0.00 0.00 0.00 0.00 0.00 0.00
0.00 0.00 0.00 0.02 0.04 0.06 0.06 0.03 0.07 0.23 0.04 0.00 0.00 0.00 0.00 0.00 0.00 0.00 0.00 0.00 0.00 0.00 0.00 0.00 0.00 0.00 0.00 0.00 0.00 0.00 0.00 0.00 0.00 0.00 0.00 0.00 0.00 0.00 0.00 0.00 0.00 0.00 0.00
0.00 0.00 0.00 0.00 0.00 0.02 0.08 0.11 0.00 0.01 0.06 0.01 0.00 0.00 0.00 0.00 0.00 0.00 0.00 0.00 0.00 0.00 0.00 0.00 0.00 0.00 0.00 0.00 0.00 0.00 0.00 0.00 0.00 0.00 0.00 0.00 0.00 0.00 0.00 0.00 0.00 0.00 0.00
0.00 0.00 0.00 0.00 0.01 0.00 0.03 0.03 0.00 0.00 0.01 0.01 0.00 0.00 0.00 0.00 0.00 0.00 0.00 0.00 0.00 0.00 0.00 0.00 0.00 0.00 0.00 0.00 0.00 0.00 0.00 0.00 0.00 0.00 0.00 0.00 0.00 0.00 0.00 0.00 0.00 0.00 0.00
0.00 0.00 0.00 0.00 0.02 0.05 0.09 0.00 0.00 0.00 0.00 0.00 0.00 0.00 0.00 0.00 0.00 0.00 0.00 0.00 0.00 0.00 0.00 0.00 0.00 0.00 0.00 0.00 0.00 0.00 0.00 0.00 0.00 0.00 0.00 0.00 0.00 0.00 0.00 0.00 0.00 0.00 0.00
0.00 0.00 0.00 0.00 0.00 0.00 0.03 0.01 0.00 0.00 0.00 0.00 0.00 0.00 0.00 0.00 0.00 0.00 0.00 0.00 0.00 0.00 0.00 0.00 0.00 0.00 0.00 0.00 0.00 0.00 0.00 0.00 0.00 0.00 0.00 0.00 0.00 0.00 0.00 0.00 0.00 0.00 0.00
0.00 0.00 0.00 0.00 0.00 0.00 0.00 0.00 0.00 0.00 0.00 0.00 0.00 0.00 0.00 0.00 0.00 0.00 0.00 0.00 0.00 0.00 0.00 0.00 0.00 0.00 0.00 0.00 0.00 0.00 0.00 0.00 0.00 0.00 0.00 0.00 0.00 0.00 0.00 0.00 0.00 0.00 0.00
0.00 0.00 0.00 0.00 0.00 0.00 0.00 0.00 0.00 0.00 0.00 0.00 0.00 0.00 0.00 0.00 0.00 0.00 0.00 0.00 0.00 0.00 0.00 0.00 0.00 0.00 0.00 0.00 0.00 0.00 0.00 0.00 0.00 0.00 0.00 0.00 0.00 0.00 0.00 0.00 0.00 0.00 0.00
0.00 0.00 0.00 0.00 0.00 0.00 0.00 0.00 0.00 0.00 0.00 0.00 0.00 0.00 0.00 0.00 0.00 0.00 0.00 0.00 0.00 0.00 0.00 0.00 0.00 0.00 0.00 0.00 0.00 0.00 0.00 0.00 0.00 0.00 0.00 0.00 0.00 0.00 0.00 0.00 0.00 0.00 0.00
0.00 0.00 0.00 0.00 0.00 0.00 0.00 0.00 0.00 0.00 0.00 0.00 0.00 0.00 0.00 0.00 0.00 0.00 0.00 0.00 0.00 0.00 0.00 0.00 0.00 0.00 0.00 0.00 0.00 0.00 0.00 0.00 0.00 0.00 0.00 0.00 0.00 0.00 0.00 0.00 0.00 0.00 0.00
0.00 0.00 0.00 0.00 0.00 0.00 0.00 0.00 0.00 0.00 0.00 0.00 0.00 0.00 0.00 0.00 0.00 0.00 0.00 0.00 0.00 0.00 0.00 0.00 0.00 0.00 0.00 0.00 0.00 0.00 0.00 0.00 0.00 0.00 0.00 0.00 0.00 0.00 0.00 0.00 0.00 0.00 0.00
0.00 0.00 0.00 0.00 0.00 0.00 0.00 0.00 0.00 0.00 0.00 0.00 0.00 0.00 0.00 0.00 0.00 0.00 0.00 0.00 0.00 0.00 0.00 0.00 0.00 0.00 0.00 0.00 0.00 0.00 0.00 0.00 0.00 0.00 0.00 0.00 0.00 0.00 0.00 0.00 0.00 0.00 0.00
0.00 0.00 0.00 0.00 0.00 0.00 0.00 0.00 0.00 0.00 0.00 0.00 0.00 0.00 0.00 0.00 0.00 0.00 0.00 0.00 0.00 0.00 0.00 0.00 0.00 0.00 0.00 0.00 0.00 0.00 0.00 0.00 0.00 0.00 0.00 0.00 0.00 0.00 0.00 0.00 0.00 0.00 0.00
0.00 0.00 0.00 0.00 0.00 0.00 0.00 0.00 0.00 0.00 0.00 0.00 0.00 0.00 0.00 0.00 0.00 0.00 0.00 0.00 0.00 0.00 0.00 0.00 0.00 0.00 0.00 0.00 0.00 0.00 0.00 0.00 0.00 0.00 0.00 0.00 0.00 0.00 0.00 0.00 0.00 0.00 0.00
0.00 0.00 0.00 0.00 0.00 0.00 0.00 0.00 0.00 0.00 0.00 0.00 0.00 0.00 0.00 0.00 0.00 0.00 0.00 0.00 0.00 0.00 0.00 0.00 0.00 0.00 0.00 0.00 0.00 0.00 0.00 0.00 0.00 0.00 0.00 0.00 0.00 0.00 0.00 0.00 0.00 0.00 0.00
0.00 0.00 0.00 0.00 0.00 0.00 0.00 0.00 0.00 0.00 0.00 0.00 0.00 0.00 0.00 0.00 0.00 0.00 0.00 0.00 0.00 0.00 0.00 0.00 0.00 0.00 0.00 0.00 0.00 0.00 0.00 0.00 0.00 0.00 0.00 0.00 0.00 0.00 0.00 0.00 0.00 0.00 0.00
0.00 0.00 0.00 0.00 0.00 0.00 0.00 0.00 0.00 0.00 0.00 0.00 0.00 0.00 0.00 0.00 0.00 0.00 0.00 0.00 0.00 0.00 0.00 0.00 0.00 0.00 0.00 0.00 0.00 0.00 0.00 0.00 0.00 0.00 0.00 0.00 0.00 0.00 0.00 0.00 0.00 0.00 0.00
0.00 0.00 0.00 0.00 0.00 0.00 0.00 0.00 0.00 0.00 0.00 0.00 0.00 0.00 0.00 0.00 0.00 0.00 0.00 0.00 0.00 0.00 0.00 0.00 0.00 0.00 0.00 0.00 0.00 0.00 0.00 0.00 0.00 0.00 0.00 0.00 0.00 0.00 0.00 0.00 0.00 0.00 0.00
0.00 0.00 0.00 0.00 0.00 0.00 0.00 0.00 0.00 0.00 0.00 0.00 0.00 0.00 0.00 0.00 0.00 0.00 0.00 0.00 0.00 0.00 0.00 0.00 0.00 0.00 0.00 0.00 0.00 0.00 0.00 0.00 0.00 0.00 0.00 0.00 0.00 0.00 0.00 0.00 0.00 0.00 0.00
MSLP
1009.26 1009.51 1010.36 1010.35 1010.32 1010.30 1010.43 1010.45 1010.55 1010.74 1010.81 1010.80 1010.85 1011.09 1011.44 1011.86 1012.03 1012.03 1012.10 1012.03 1012.19 1012.17 1012.23 1012.33 1012.42 1012.57 1012.56 1012.82 1013.03 1013.22 1013.27 1013.32 1013.53 1013.63 1013.67 1013.69 1013.75 1013.83 1013.90 1013.81 1013.80 1014.14 1014.20
1009.62 1009.79 1010.14 1010.31 1010.40 1010.37 1010.33 1010.55 1010.60 1010.92 1011.13 1011.22 1011.31 1011.35 1011.77 1012.12 1012.22 1012.35 1012.37 1012.34 1012.54 1012.51 1012.61 1012.83 1012.79 1013.06 1013.08 1013.38 1013.59 1013.70 1013.77 1013.80 1013.89 1013.98 1014.09 1014.19 1014.27 1014.32 1014.34 1014.35 1014.46 1014.63 1014.62
1009.65 1009.78 1009.72 1010.01 1010.21 1010.45 1010.43 1010.71 1010.92 1011.13 1011.26 1011.45 1011.50 1011.57 1011.95 1012.28 1012.52 1012.54 1012.77 1012.80 1012.94 1013.07 1013.21 1013.28 1013.33 1013.50 1013.66 1014.03 1014.23 1014.22 1014.17 1014.12 1014.18 1014.17 1014.17 1014.41 1014.73 1014.79 1014.79 1014.83 1014.78 1014.82 1014.98
1009.82 1009.67 1009.58 1009.55 1009.85 1010.24 1010.57 1010.91 1011.06 1011.21 1011.37 1011.56 1011.78 1011.90 1012.21 1012.49 1012.71 1012.68 1013.16 1013.46 1013.63 1013.71 1013.81 1014.04 1013.94 1014.05 1014.31 1014.68 1014.82 1014.75 1014.68 1014.61 1014.57 1014.56 1014.74 1014.93 1015.15 1015.26 1015.33 1015.33 1015.24 1015.21 1015.34
1009.93 1009.65 1009.80 1009.94 1009.99 1010.35 1010.78 1010.72 1010.66 1010.94 1011.28 1011.72 1011.64 1012.22 1012.64 1012.64 1012.72 1013.31 1013.74 1014.26 1014.33 1014.50 1014.52 1014.61 1014.72 1014.80 1014.96 1015.26 1015.42 1015.24 1015.18 1014.97 1014.89 1015.06 1015.40 1015.68 1015.83 1016.00 1015.97 1015.97 1015.96 1015.91 1015.89
1010.04 1009.77 1010.24 1010.34 1010.53 1010.77 1011.01 1010.83 1010.67 1010.95 1011.21 1010.64 1011.74 1012.62 1012.64 1012.98 1013.59 1014.12 1014.50 1014.72 1014.95 1015.06 1015.05 1015.13 1015.36 1015.59 1015.69 1015.83 1015.99 1015.89 1015.79 1015.50 1015.10 1015.35 1015.90 1016.24 1016.54 1016.60 1016.56 1016.49 1016.52 1016.52 1016.46
1010.13 1010.15 1010.40 1010.75 1010.85 1010.89 1011.22 1010.88 1011.45 1011.58 1011.31 1011.89 1012.37 1013.34 1013.77 1014.04 1014.47 1014.78 1014.75 1015.28 1015.55 1015.48 1015.53 1015.60 1015.82 1016.05 1016.17 1016.31 1016.51 1016.44 1016.35 1016.08 1015.82 1015.99 1016.41 1016.87 1017.20 1017.22 1017.12 1017.08 1017.09 1017.03 1017.05
1010.30 1010.65 1010.48 1010.98 1011.14 1011.12 1011.45 1011.43 1011.53 1013.04 1012.30 1012.46 1013.10 1013.72 1014.32 1014.64 1015.26 1015.27 1015.58 1015.84 1015.89 1015.96 1015.96 1016.14 1016.37 1016.52 1016.67 1016.87 1016.92 1017.00 1016.96 1016.74 1016.40 1016.59 1016.81 1017.37 1017.71 1017.72 1017.66 1017.57 1017.51 1017.49 1017.46
1010.76 1011.06 1011.31 1011.12 1011.53 1011.59 1011.76 1012.23 1012.64 1013.13 1012.84 1013.14 1013.46 1013.92 1014.83 1015.36 1015.65 1015.66 1016.14 1016.28 1016.42 1016.44 1016.40 1016.81 1016.92 1016.90 1017.18 1017.44 1017.46 1017.38 1017.37 1017.15 1016.91 1017.09 1016.99 1017.64 1017.97 1017.95 1018.04 1017.99 1017.90 1017.92 1017.91
1011.03 1011.40 1011.83 1011.82 1011.98 1012.24 1012.28 1012.78 1013.25 1013.54 1013.93 1013.77 1014.88 1015.34 1015.65 1015.63 1015.79 1015.93 1016.63 1016.97 1016.96 1016.98 1017.13 1017.36 1017.53 1017.53 1017.76 1017.90 1017.99 1017.94 1017.75 1017.52 1017.55 1017.58 1018.00 1018.32 1018.29 1018.25 1018.28 1018.25 1018.20 1018.27 1018.31
1011.21 1011.37 1011.97 1012.20 1012.61 1012.58 1012.64 1013.24 1013.91 1014.25 1014.38 1014.70 1015.70 1016.13 1015.79 1015.92 1015.97 1016.85 1017.25 1017.42 1017.43 1017.61 1017.92 1017.96 1018.06 1018.19 1018.25 1018.27 1018.37 1018.18 1017.91 1017.90 1017.88 1018.05 1018.53 1018.80 1018.57 1018.48 1018.46 1018.41 1018.38 1018.41 1018.55
1011.09 1011.19 1011.87 1012.48 1012.94 1013.05 1012.79 1013.25 1014.15 1014.62 1015.00 1015.66 1016.00 1016.00 1015.80 1015.98 1016.60 1017.49 1017.84 1017.88 1018.19 1018.27 1018.40 1018.39 1018.31 1018.41 1018.01 1017.99 1018.27 1018.28 1018.35 1018.37 1018.34 1018.65 1019.07 1018.82 1018.62 1018.70 1018.88 1019.05 1019.06 1019.10 1019.32
1010.72 1011.32 1011.55 1012.28 1012.82 1013.17 1013.69 1013.61 1013.92 1014.70 1015.36 1015.98 1016.23 1016.42 1016.44 1017.05 1017.64 1018.10 1018.52 1018.41 1018.61 1018.67 1018.62 1018.55 1018.47 1018.54 1018.68 1018.58 1018.61 1018.84 1018.86 1018.67 1018.67 1019.15 1019.56 1019.17 1019.18 1019.46 1019.71 1019.86 1020.00 1020.04 1020.05
1009.97 1010.81 1011.34 1011.75 1012.41 1012.98 1013.67 1013.90 1014.32 1014.88 1015.62 1016.24 1016.62 1016.83 1016.94 1017.45 1017.64 1017.94 1018.22 1018.38 1018.48 1018.55 1018.69 1018.57 1018.79 1019.01 1019.15 1019.02 1019.12 1019.22 1019.25 1019.05 1019.09 1019.53 1020.35 1020.01 1020.07 1020.25 1020.38 1020.53 1020.63 1020.59 1020.62
1009.52 1010.33 1010.88 1011.44 1012.02 1012.48 1013.05 1013.78 1014.40 1014.87 1015.45 1015.96 1016.54 1016.87 1017.07 1017.31 1017.84 1018.02 1018.41 1018.55 1018.79 1018.81 1018.89 1019.08 1019.09 1019.32 1019.26 1019.45 1019.73 1019.69 1019.77 1019.53 1019.69 1020.23 1021.09 1021.01 1021.05 1021.15 1021.39 1021.48 1021.52 1021.44 1021.39
1008.98 1009.97 1010.79 1011.51 1011.96 1012.42 1012.98 1013.45 1014.16 1014.87 1015.49 1015.99 1016.30 1016.61 1016.87 1017.32 1017.84 1018.09 1018.69 1019.03 1018.94 1019.31 1019.35 1019.55 1019.47 1019.69 1019.77 1019.78 1020.05 1020.25 1020.38 1020.38 1020.39 1020.63 1021.45 1021.97 1022.02 1022.05 1022.04 1022.19 1022.11 1022.00 1021.95
1007.83 1009.13 1010.26 1011.13 1011.83 1012.39 1012.88 1013.62 1014.14 1014.65 1015.13 1015.59 1016.00 1016.58 1016.89 1017.26 1017.59 1018.06 1018.50 1018.74 1019.04 1019.39 1019.27 1019.76 1019.93 1019.86 1020.02 1020.18 1020.35 1020.65 1020.69 1020.84 1020.97 1021.17 1021.38 1021.96 1022.59 1022.68 1022.64 1022.63 1022.66 1022.59 1022.55
1007.34 1008.32 1009.65 1010.68 1011.31 1012.09 1012.86 1013.45 1014.01 1014.79 1015.15 1015.52 1016.10 1016.51 1017.01 1017.33 1017.54 1018.01 1018.38 1018.92 1019.00 1019.10 1019.38 1019.56 1019.66 1019.81 1020.16 1020.37 1020.51 1020.97 1021.04 1021.06 1021.27 1021.54 1021.73 1022.13 1022.38 1022.31 1022.66 1023.17 1023.12 1022.87 1022.96
1006.57 1007.46 1008.61 1009.94 1010.94 1011.77 1012.40 1013.19 1013.86 1014.69 1014.99 1015.61 1016.29 1016.66 1017.16 1017.49 1017.54 1017.83 1018.40 1019.16 1019.25 1019.28 1019.38 1019.58 1020.04 1020.03 1020.46 1020.61 1020.74 1020.95 1020.84 1021.13 1021.57 1021.64 1022.02 1022.52 1022.81 1022.73 1022.75 1022.83 1023.12 1023.13 1023.37
1006.43 1007.19 1008.36 1009.78 1010.85 1011.63 1012.32 1013.10 1013.70 1014.42 1015.09 1016.01 1016.66 1016.97 1017.31 1017.56 1017.76 1017.98 1018.44 1018.83 1019.13 1019.32 1019.55 1019.70 1020.10 1020.58 1020.65 1020.77 1021.00 1021.10 1021.28 1021.39 1021.60 1021.68 1022.09 1022.29 1022.72 1022.94 1022.95 1022.87 1022.85 1023.14 1023.35
1006.52 1007.13 1007.98 1009.07 1010.25 1011.22 1011.92 1012.60 1013.49 1014.34 1015.50 1016.34 1016.65 1016.83 1017.36 1017.90 1017.92 1018.19 1018.52 1018.81 1019.13 1019.35 1019.58 1019.85 1020.22 1020.58 1020.94 1021.02 1021.17 1021.56 1021.60 1021.70 1021.55 1021.72 1022.22 1022.32 1022.59 1022.84 1022.87 1022.99 1022.89 1023.27 1023.10
1006.77 1007.45 1008.11 1008.94 1009.87 1010.78 1011.68 1012.33 1012.96 1013.92 1015.28 1016.33 1016.85 1017.20 1017.62 1017.78 1018.10 1018.41 1018.64 1018.83 1019.00 1019.63 1019.88 1020.13 1020.13 1020.42 1020.84 1021.31 1020.99 1020.71 1021.15 1021.74 1021.68 1021.79 1021.97 1022.39 1022.63 1022.71 1022.75 1023.07 1022.99 1023.21 1023.16
1007.22 1007.71 1008.32 1009.04 1009.91 1010.67 1011.42 1012.13 1012.97 1014.03 1015.03 1016.09 1016.90 1017.48 1017.82 1018.09 1018.46 1018.44 1018.53 1018.81 1019.10 1019.43 1019.79 1020.04 1020.10 1020.43 1020.37 1021.40 1021.43 1021.24 1021.01 1020.70 1021.29 1021.82 1021.99 1022.44 1022.69 1022.95 1022.44 1023.32 1023.14 1023.14 1023.22
1008.04 1008.24 1008.61 1009.04 1010.01 1010.89 1011.48 1011.77 1012.31 1013.29 1014.31 1015.23 1016.21 1016.98 1017.57 1018.17 1018.60 1019.01 1019.14 1019.45 1019.39 1019.56 1019.81 1020.08 1020.30 1020.72 1020.69 1021.02 1021.59 1021.45 1021.56 1021.62 1021.14 1021.70 1021.92 1022.47 1022.52 1022.83 1022.83 1023.16 1023.12 1022.95 1023.11
1009.29 1009.13 1009.25 1009.38 1010.00 1010.90 1011.62 1012.13 1012.70 1013.40 1014.06 1014.86 1016.05 1016.93 1017.80 1018.48 1018.99 1019.35 1019.53 1019.50 1019.69 1019.85 1020.12 1020.66 1020.99 1021.04 1021.04 1020.90 1021.25 1021.68 1021.89 1021.95 1021.98 1021.54 1021.33 1021.87 1022.14 1022.48 1022.72 1022.96 1022.93 1022.90 1023.00
1010.36 1010.18 1010.04 1010.11 1010.34 1010.90 1011.54 1012.20 1013.09 1013.61 1014.10 1014.86 1015.91 1016.88 1017.88 1018.49 1018.97 1019.36 1019.62 1019.89 1020.16 1020.38 1020.77 1021.09 1021.29 1021.43 1021.47 1021.54 1021.93 1021.86 1022.11 1021.98 1022.08 1022.12 1022.31 1022.23 1022.37 1022.61 1022.73 1022.85 1022.89 1022.88 1022.96
Thickness
5691 5687 5678 5675 5673 5673 5674 5675 5676 5678 5680 5680 5682 5683 5676 5678 5680 5684 5685 5689 5689 5692 5695 5697 5698 5698 5699 5699 5699 5698 5699 5700 5700 5701 5702 5703 5703 5703 5704 5706 5707 5704 5705
5686 5681 5676 5671 5669 5668 5670 5669 5671 5671 5672 5673 5674 5676 5670 5673 5676 5678 5681 5683 5683 5688 5690 5691 5693 5693 5694 5694 5693 5693 5694 5695 5696 5697 5697 5698 5698 5698 5700 5701 5701 5700 5702
5682 5678 5675 5670 5666 5663 5664 5663 5663 5665 5667 5667 5668 5669 5666 5668 5670 5673 5675 5676 5678 5681 5683 5685 5686 5687 5689 5687 5687 5689 5690 5692 5693 5694 5696 5694 5692 5694 5696 5697 5699 5699 5699
5676 5674 5672 5668 5662 5660 5659 5659 5660 5662 5662 5663 5662 5662 5662 5663 5664 5664 5666 5668 5670 5673 5675 5676 5679 5682 5682 5681 5682 5684 5685 5687 5689 5690 5689 5689 5688 5689 5691 5692 5694 5695 5695
5670 5669 5665 5659 5657 5654 5653 5655 5658 5659 5659 5657 5658 5657 5656 5660 5660 5659 5658 5658 5660 5664 5667 5669 5672 5674 5676 5675 5676 5678 5680 5683 5684 5684 5683 5682 5682 5682 5684 5686 5688 5689 5692
5665 5664 5658 5654 5648 5647 5648 5654 5656 5654 5654 5655 5654 5652 5652 5652 5651 5649 5648 5650 5651 5653 5660 5663 5665 5666 5668 5669 5669 5672 5673 5678 5681 5680 5677 5677 5676 5676 5679 5682 5683 5684 5685
5663 5659 5654 5648 5644 5644 5645 5652 5646 5645 5647 5647 5647 5643 5641 5645 5642 5642 5644 5643 5644 5648 5653 5657 5658 5660 5661 5662 5663 5665 5668 5671 5673 5673 5672 5671 5670 5671 5673 5676 5677 5679 5680
5660 5653 5651 5645 5640 5641 5641 5644 5646 5632 5634 5640 5640 5638 5636 5637 5633 5635 5633 5634 5637 5641 5647 5650 5651 5653 5654 5655 5658 5659 5661 5664 5666 5667 5667 5665 5664 5666 5668 5670 5673 5673 5675
5652 5649 5645 5644 5637 5636 5637 5636 5635 5629 5635 5635 5637 5635 5629 5627 5628 5628 5625 5627 5630 5636 5641 5642 5644 5647 5648 5649 5651 5654 5655 5659 5661 5661 5663 5660 5660 5661 5663 5665 5668 5668 5669
5648 5644 5640 5637 5635 5632 5630 5626 5624 5622 5623 5629 5623 5622 5621 5623 5624 5625 5621 5621 5624 5629 5633 5634 5636 5639 5641 5643 5645 5647 5650 5652 5653 5654 5653 5653 5655 5657 5658 5660 5662 5664 5665
5643 5642 5636 5633 5629 5627 5627 5621 5617 5617 5618 5617 5612 5611 5616 5619 5620 5615 5614 5616 5619 5620 5624 5627 5629 5631 5634 5636 5638 5641 5645 5646 5648 5648 5646 5646 5650 5654 5655 5656 5657 5659 5660
5641 5641 5635 5629 5625 5623 5625 5620 5614 5612 5609 5608 5607 5608 5611 5613 5610 5606 5608 5609 5610 5614 5617 5621 5624 5626 5631 5633 5634 5636 5638 5639 5641 5640 5640 5643 5646 5648 5648 5649 5651 5652 5652
5642 5636 5635 5630 5624 5621 5617 5619 5617 5611 5606 5601 5600 5601 5603 5602 5600 5601 5601 5605 5607 5609 5612 5616 5620 5621 5622 5625 5628 5629 5631 5634 5636 5634 5634 5638 5639 5639 5638 5640 5640 5642 5643
5646 5639 5635 5632 5626 5621 5616 5613 5611 5608 5602 5598 5596 5596 5598 5597 5600 5599 5600 5602 5604 5606 5608 5612 5613 5613 5614 5618 5619 5622 5623 5627 5628 5628 5624 5628 5628 5629 5631 5630 5631 5633 5635
5643 5638 5635 5631 5627 5623 5618 5612 5608 5605 5603 5600 5597 5596 5597 5598 5596 5598 5596 5598 5599 5601 5604 5604 5606 5607 5610 5611 5611 5614 5615 5620 5619 5618 5614 5616 5617 5618 5618 5619 5621 5623 5624
5641 5634 5629 5624 5622 5618 5616 5613 5609 5603 5600 5599 5598 5598 5598 5596 5594 5594 5592 5592 5595 5595 5596 5596 5599 5600 5602 5605 5604 5605 5605 5608 5610 5610 5605 5604 5606 5607 5609 5608 5610 5612 5614
5646 5636 5628 5622 5618 5615 5612 5607 5605 5603 5600 5598 5597 5594 5594 5591 5591 5590 5588 5590 5590 5589 5592 5591 5591 5595 5596 5596 5597 5597 5598 5598 5599 5601 5601 5598 5596 5598 5600 5601 5601 5603 5604
5645 5638 5628 5622 5619 5613 5607 5603 5599 5593 5594 5594 5591 5589 5587 5586 5585 5584 5583 5581 5584 5586 5585 5587 5588 5590 5589 5590 5591 5587 5589 5590 5590 5591 5592 5589 5590 5592 5593 5590 5592 5596 5595
5645 5640 5632 5623 5615 5609 5605 5600 5595 5590 5590 5587 5583 5582 5579 5578 5580 5580 5577 5572 5574 5577 5579 5581 5579 5582 5580 5581 5582 5581 5584 5583 5581 5582 5581 5579 5579 5581 5582 5584 5583 5585 5583
5639 5633 5627 5617 5609 5605 5600 5594 5591 5587 5583 5578 5574 5573 5572 5572 5572 5572 5572 5571 5570 5570 5570 5570 5569 5567 5569 5571 5571 5572 5572 5573 5572 5574 5572 5572 5571 5570 5572 5575 5576 5574 5574
5631 5627 5620 5613 5605 5598 5594 5590 5585 5579 5571 5566 5566 5566 5564 5561 5565 5565 5564 5564 5563 5564 5564 5563 5562 5561 5560 5561 5562 5560 5561 5562 5566 5566 5562 5562 5563 5562 5563 5564 5566 5563 5565
5619 5614 5611 5605 5599 5593 5588 5584 5582 5576 5567 5561 5559 5557 5555 5555 5553 5553 5553 5554 5554 5551 5551 5551 5554 5554 5553 5549 5556 5562 5560 5554 5555 5555 5554 5551 5550 5552 5552 5551 5553 5552 5554
5606 5603 5599 5594 5589 5584 5580 5576 5573 5567 5561 5554 5549 5546 5545 5543 5541 5542 5543 5542 5542 5541 5542 5542 5545 5543 5547 5538 5538 5543 5552 5560 5548 5542 5543 5539 5539 5537 5544 5535 5539 5541 5541
5588 5588 5585 5583 5576 5571 5568 5567 5566 5561 5555 5551 5543 5539 5537 5534 5531 5528 5529 5527 5529 5530 5531 5530 5530 5528 5531 5529 5525 5528 5527 5529 5541 5536 5531 5526 5527 5525 5526 5524 5525 5529 5528
5564 5568 5568 5568 5564 5558 5553 5552 5551 5547 5543 5539 5533 5528 5522 5518 5515 5514 5514 5516 5516 5516 5516 5513 5512 5513 5515 5519 5517 5514 5514 5514 5514 5522 5531 5522 5517 5515 5513 5512 5513 5514 5513
5542 5545 5548 5549 5548 5545 5541 5538 5533 5531 5530 5525 5519 5513 5507 5504 5502 5501 5501 5500 5499 5499 5497 5497 5497 5497 5499 5500 5498 5499 5499 5502 5502 5503 5503 5506 5502 5499 5498 5497 5498 5498 5498